KT4ATL Weather Reports


time (UTC)temp
C
wind
direction
speed
KPH
gust
KPH
rain 1hr
cm
rain 24hr
cm
rain mn
cm
humidity
%
barometer
mb
20260906022519 27 63 0.0 1.6 0.00 0.00 0.00 76 1012.4
20260906021539 28 62 0.0 1.6 0.00 0.00 0.00 75 1012.3
20260906020519 28 0.0 0.0 0.00 0.00 0.00 74 1012.2
20260906015519 28 0.0 0.0 0.00 0.00 0.00 72 1012.0
20260906014519 29 0.0 0.0 0.00 0.00 0.00 71 1011.9
20260906013540 29 31 0.0 1.6 0.00 0.00 0.00 70 1011.9
20260906012519 29 24 1.6 4.8 0.00 0.00 0.00 70 1012.1
20260906011520 29 32 3.2 6.4 0.00 0.00 0.00 73 1012.2
20260906010520 29 0.0 0.0 0.00 0.00 0.00 73 1012.0
20260906005520 30 0.0 0.0 0.00 0.00 0.00 72 1011.9
20260906004521 30 0.0 0.0 0.00 0.00 0.00 70 1011.8
20260906003521 30 8 0.0 0.0 0.00 0.00 0.00 68 1011.7
20260906002521 31 12 3.2 3.2 0.00 0.00 0.00 67 1011.6
20260906001521 31 16 3.2 3.2 0.00 0.00 0.00 65 1011.6
20260906000521 32 23 3.2 3.2 0.00 0.00 0.00 63 1011.6
20260905235522 32 32 3.2 4.8 0.00 0.00 0.00 61 1011.7
20260905234522 32 33 3.2 4.8 0.00 0.00 0.00 61 1011.6
20260905233522 33 39 3.2 4.8 0.00 0.00 0.00 59 1011.6
20260905232517 33 35 3.2 4.8 0.00 0.00 0.00 58 1011.5
20260905231517 33 36 1.6 4.8 0.00 0.00 0.00 56 1011.4
20260905230517 34 29 3.2 8.0 0.00 0.00 0.00 55 1011.5
20260905225519 34 25 3.2 6.4 0.00 0.00 0.00 53 1011.5
20260905224517 35 31 0.0 4.8 0.00 0.00 0.00 52 1011.5
20260905223517 35 34 1.6 4.8 0.00 0.00 0.00 51 1011.5
20260905222520 35 28 1.6 4.8 0.00 0.00 0.00 50 1011.5
20260905221518 35 22 3.2 6.4 0.00 0.00 0.00 49 1011.4
20260905220518 35 29 1.6 4.8 0.00 0.00 0.00 49 1011.5
20260905215517 35 46 0.0 3.2 0.00 0.00 0.00 49 1011.5
20260905214538 35 29 0.0 4.8 0.00 0.00 0.00 50 1011.5
20260905213518 36 27 1.6 4.8 0.00 0.00 0.00 49 1011.5
20260905212519 36 24 3.2 4.8 0.00 0.00 0.00 50 1011.6
20260905211518 36 31 1.6 4.8 0.00 0.00 0.00 48 1011.6
20260905210518 36 33 1.6 4.8 0.00 0.00 0.00 47 1011.6
20260905205516 36 89 0.0 3.2 0.00 0.00 0.00 48 1011.7
20260905204519 37 22 3.2 6.4 0.00 0.00 0.00 47 1011.8
20260905203540 38 43 0.0 3.2 0.00 0.00 0.00 47 1011.9
20260905202519 38 25 0.0 4.8 0.00 0.00 0.00 46 1012.0
20260905201516 38 328 0.0 3.2 0.00 0.00 0.00 46 1012.1
20260905200517 39 158 0.0 4.8 0.00 0.00 0.00 45 1012.3
20260905195519 39 213 0.0 3.2 0.00 0.00 0.00 46 1012.3
20260905194520 39 6 0.0 6.4 0.00 0.00 0.00 46 1012.5
20260905193517 38 15 1.6 6.4 0.00 0.00 0.00 48 1012.5
20260905192517 38 22 1.6 8.0 0.00 0.00 0.00 47 1012.7
20260905191517 39 44 1.6 8.0 0.00 0.00 0.00 45 1012.8
20260905190517 40 10 1.6 4.8 0.00 0.00 0.00 45 1013.0
20260905185518 39 29 1.6 4.8 0.00 0.00 0.00 46 1013.1
20260905184518 39 226 0.0 3.2 0.00 0.00 0.00 48 1013.2
20260905183519 39 133 1.6 6.4 0.00 0.00 0.00 47 1013.4
20260905182518 39 17 1.6 4.8 0.00 0.00 0.00 48 1013.6
20260905181518 39 35 1.6 4.8 0.00 0.00 0.00 48 1013.6
20260905180559 39 23 1.6 6.4 0.00 0.00 0.00 47 1013.7
20260905175518 39 8 1.6 4.8 0.00 0.00 0.00 48 1013.8
20260905174518 38 235 0.0 3.2 0.00 0.00 0.00 50 1013.9
20260905173559 38 304 1.6 8.0 0.00 0.00 0.00 51 1013.9
20260905172517 38 4 1.6 4.8 0.00 0.00 0.00 50 1014.0
20260905171516 38 33 0.0 4.8 0.00 0.00 0.00 51 1014.1
20260905170519 38 188 1.6 4.8 0.00 0.00 0.00 51 1014.3
20260905165520 37 36 1.6 6.4 0.00 0.00 0.00 51 1014.5
20260905164540 37 56 1.6 4.8 0.00 0.00 0.00 53 1014.6
20260905163517 37 213 1.6 8.0 0.00 0.00 0.00 51 1014.8
20260905162517 37 70 0.0 4.8 0.00 0.00 0.00 52 1014.9
20260905161540 36 40 1.6 6.4 0.00 0.00 0.00 53 1015.0
20260905160517 36 359 0.0 6.4 0.00 0.00 0.00 57 1015.2
20260905155518 35 24 1.6 4.8 0.00 0.00 0.00 58 1015.3
20260905154518 34 15 1.6 6.4 0.00 0.00 0.00 62 1015.4
20260905153518 33 39 0.0 0.0 0.00 0.00 0.00 65 1015.5
20260905152530 32 149 1.6 3.2 0.00 0.00 0.00 66 1015.6
20260905151516 31 23 1.6 3.2 0.00 0.00 0.00 68 1015.7
20260905150516 30 18 3.2 4.8 0.00 0.00 0.00 71 1015.7
20260905145531 29 25 0.0 3.2 0.00 0.00 0.00 76 1015.8
20260905144531 28 0.0 0.0 0.00 0.00 0.00 78 1015.9
20260905143551 27 0.0 0.0 0.00 0.00 0.00 80 1015.9
20260905142531 27 44 0.0 0.0 0.00 0.00 0.00 82 1015.9
20260905141531 26 84 0.0 1.6 0.00 0.00 0.00 83 1016.0
20260905140537 26 73 0.0 1.6 0.00 0.00 0.00 85 1016.1
20260905135517 26 69 0.0 1.6 0.00 0.00 0.00 86 1016.1
20260905134517 26 123 0.0 1.6 0.00 0.00 0.00 87 1016.0
20260905133557 25 170 0.0 0.0 0.00 0.00 0.00 87 1016.1
20260905132518 25 156 0.0 0.0 0.00 0.00 0.00 88 1016.2
20260905131532 25 0.0 0.0 0.00 0.00 0.00 89 1016.2
20260905130517 25 55 0.0 0.0 0.00 0.00 0.00 90 1016.2
20260905125538 24 0.0 0.0 0.00 0.00 0.00 90 1016.2
20260905124518 24 49 0.0 1.6 0.00 0.00 0.00 92 1016.2
20260905123539 23 38 0.0 1.6 0.00 0.00 0.00 94 1016.2
20260905122518 23 0.0 0.0 0.00 0.00 0.00 97 1016.0
20260905121518 23 0.0 0.0 0.00 0.00 0.00 97 1015.9
20260905120518 22 0.0 0.0 0.00 0.00 0.00 97 1015.8
20260905115519 22 0.0 0.0 0.00 0.00 0.00 97 1015.7
20260905114519 22 110 0.0 1.6 0.00 0.00 0.00 97 1015.6
20260905113519 22 0.0 0.0 0.00 0.00 0.00 97 1015.5
20260905112519 22 0.0 0.0 0.00 0.00 0.00 97 1015.4
20260905111519 22 0.0 0.0 0.00 0.00 0.00 97 1015.3
20260905110520 22 0.0 0.0 0.00 0.00 0.00 97 1015.2
20260905105520 22 0.0 0.0 0.00 0.00 0.00 97 1015.1
20260905104520 22 0.0 0.0 0.00 0.00 0.00 96 1015.1
20260905103520 22 0.0 0.0 0.00 0.00 0.00 96 1015.0
20260905102541 22 0.0 0.0 0.00 0.00 0.00 96 1014.9
20260905101521 22 0.0 0.0 0.00 0.00 0.00 96 1014.8
20260905100521 22 0.0 0.0 0.00 0.00 0.00 96 1014.8
20260905095521 22 0.0 0.0 0.00 0.00 0.00 96 1014.7
20260905094521 22 0.0 0.0 0.00 0.00 0.00 96 1014.7
20260905093521 22 0.0 0.0 0.00 0.00 0.00 96 1014.7
20260905092522 22 0.0 0.0 0.00 0.00 0.00 96 1014.7
20260905091521 22 0.0 0.0 0.00 0.00 0.00 95 1014.7
20260905090522 22 0.0 0.0 0.00 0.00 0.00 95 1014.7
20260905085522 22 0.0 0.0 0.00 0.00 0.00 95 1014.7
20260905084522 22 0.0 0.0 0.00 0.00 0.00 95 1014.7
20260905083522 22 0.0 0.0 0.00 0.00 0.00 95 1014.6
20260905082543 22 0.0 0.0 0.00 0.00 0.00 95 1014.7
20260905081523 23 0.0 0.0 0.00 0.00 0.00 95 1014.7
20260905080523 22 0.0 0.0 0.00 0.00 0.00 95 1014.7
20260905075523 23 0.0 0.0 0.00 0.00 0.00 94 1014.7
20260905074523 23 0.0 0.0 0.00 0.00 0.00 94 1014.7
20260905073523 23 0.0 0.0 0.00 0.00 0.00 94 1014.7
20260905072604 23 0.0 0.0 0.00 0.00 0.00 94 1014.7
20260905071524 23 0.0 0.0 0.00 0.00 0.00 94 1014.7
20260905070524 23 0.0 0.0 0.00 0.00 0.00 93 1014.7
20260905065524 23 0.0 0.0 0.00 0.00 0.00 93 1014.7
20260905064525 23 0.0 0.0 0.00 0.00 0.00 93 1014.7
20260905063525 23 0.0 0.0 0.00 0.00 0.00 93 1014.7
20260905062605 23 0.0 0.0 0.00 0.00 0.00 93 1014.8
20260905061605 23 0.0 0.0 0.00 0.00 0.00 92 1014.7
20260905060525 23 0.0 0.0 0.00 0.00 0.00 92 1014.7
20260905055525 23 0.0 0.0 0.00 0.00 0.00 91 1014.7
20260905054525 23 0.0 0.0 0.00 0.00 0.00 90 1014.7
20260905053526 23 0.0 0.0 0.00 0.00 0.00 90 1014.7
20260905052526 24 0.0 0.0 0.00 0.00 0.00 90 1014.8
20260905051526 24 0.0 0.0 0.00 0.00 0.00 89 1014.8
20260905050546 24 0.0 0.0 0.00 0.00 0.00 89 1014.8
20260905045526 24 0.0 0.0 0.00 0.00 0.00 89 1014.8
20260905044526 24 0.0 0.0 0.00 0.00 0.00 89 1014.9
20260905043527 25 35 0.0 1.6 0.00 0.00 0.00 89 1014.9
20260905042527 25 0.0 0.0 0.00 0.00 0.00 88 1014.8
20260905041527 25 0.0 0.0 0.00 0.00 0.00 88 1014.7
20260905040527 25 0.0 0.0 0.00 0.00 0.00 87 1014.7
20260905035528 25 0.0 0.0 0.00 0.00 0.00 87 1014.8
20260905034548 25 0.0 0.0 0.00 0.00 0.00 86 1014.9
20260905033549 25 25 0.0 1.6 0.00 0.00 0.00 85 1015.0
20260905032528 26 0.0 0.0 0.00 0.00 0.00 85 1015.0
20260905031548 26 35 0.0 1.6 0.00 0.00 0.00 84 1015.0
20260905030529 26 72 0.0 0.0 0.00 0.00 0.00 83 1015.0
20260905025609 26 84 0.0 1.6 0.00 0.00 0.00 83 1015.1
20260905024529 26 146 0.0 0.0 0.00 0.00 0.00 82 1015.1
20260905023529 26 121 0.0 1.6 0.00 0.00 0.00 81 1015.1